{"data":{"norad_id":53639,"intl_designator":"2022-104BD","name":"STARLINK-4422","alt_names":[],"object_type":"PAYLOAD","status":"ACTIVE","operator":null,"country":"US","launch_date":"2022-08-28","launch_site_code":"AFETR","launch_vehicle":null,"mission":null,"orbit_class":"UNKNOWN","rcs_meters":null,"size_class":null,"mass_kg":null,"dimensions":null,"purposes":["comms"],"wikipedia_slug":null,"has_3d_model":false,"image_url":null,"decayed_at":null,"tle_current":{"epoch":"2026-09-20T22:00:03.000096Z","epoch_age_seconds":46407,"freshness":"FRESH","line1":"1 53639U 22104BD  26263.91670139  .01159874  00000+0  30572-1 0  9992","line2":"2 53639  53.1860  34.7711 0001466  61.2202 333.3879 15.35051865  5756","mean_motion":15.35051865,"eccentricity":0.0001466,"inclination_deg":53.186,"raan_deg":34.7711,"arg_perigee_deg":61.2202,"mean_anomaly_deg":333.3879,"bstar":0.030572,"rev_number":575,"period_min":93.807905311395,"perigee_km":459.76386247128,"apogee_km":461.76902896157,"semimajor_km":6838.9034457164,"source":"CELESTRAK","updated_at":"2026-09-21T09:00:32.947196Z"}}}